Погода в Калинине

Россия / Орловская область     52°22′58″N   37°55′13″E
темп.,
°C
ветер,
м/с
пор.,
м/с
влажн.,
%
обл.,
%
осадки,
мм/ч
давл.,
гПа
погр.,
м
5 марта, пт
пт500:000з5998100 0.3 1003462
03:00−2з41093100 0.4 1004345
06:00−4зсз4795100 0.1 1007227
09:00−4сз359499 0.1 1009197
12:00−3зсз349310 0.0 1011286
15:00−2зсз349011 0.0 1012411
18:00−5з239351 0.0 101321
21:00−7з239346 0.0 101521
6 марта, сб
сб600:00−7зсз2394100 0.0 101621
03:00−8зсз2293100 0.0 101721
06:00−9зсз2294100 0.0 101621
09:00−7зсз2395100 0.1 1017139
12:00−6сз359267 0.0 1017316
15:00−5сз479177 0.1 1017574
18:00−8сз488981 0.1 1018180
21:00−11зсз348840 0.1 101949
7 марта, вс
вс700:00−12з44890 0.0 101980
03:00−13зюз47900 0.0 1019114
06:00−12юз511920 0.0 1016244
09:00−7юз8168735 0.0 1013630
12:00−4юз111779100 0.0 1008976
15:00−3юз122093100 0.6 10031315
18:00−2з111795100 1.3 10021129
21:00−8з5117692 1.7 1005229
8 марта, пн
пн800:00−11юз48820 0.0 1004113
03:00−9юз512823 0.0 1002256
06:00−5зюз7158976 0.0 1000746
09:00−8з7148268 0.1 1003787
12:00−8з7118521 0.0 1005724
15:00−7з7108560 0.1 1007986
18:00−8з61286100 0.1 1009665
21:00−10з5118763 0.1 1011266
9 марта, вт
вт900:00−11з5119312 0.0 1012243
03:00−13зсз479618 0.0 1013114
06:00−14зсз349618 0.0 101579
09:00−12сз479449 0.0 1017268
12:00−11сз468999 0.0 1018534
15:00−10сз5787100 0.1 1019644
18:00−13зсз3692100 0.0 1020101
21:00−15зсз339353 0.0 102231